Year,Month,Day,Hour,Minute,Value (Times are PST for temperature in C)
2015,12,04,00,00,6.40
2015,12,04,00,01,6.30
2015,12,04,00,02,6.30
2015,12,04,00,03,6.20
2015,12,04,00,04,6.20
2015,12,04,00,05,6.20
2015,12,04,00,06,6.10
2015,12,04,00,07,6.00
2015,12,04,00,08,6.00
2015,12,04,00,09,5.90
2015,12,04,00,10,5.90
2015,12,04,00,11,5.90
2015,12,04,00,12,5.90
2015,12,04,00,13,5.90
2015,12,04,00,14,5.90
2015,12,04,00,15,5.90
2015,12,04,00,16,5.90
2015,12,04,00,17,5.90
2015,12,04,00,18,5.90
2015,12,04,00,19,5.90
2015,12,04,00,20,5.90
2015,12,04,00,21,5.90
2015,12,04,00,22,5.90
2015,12,04,00,23,5.80
2015,12,04,00,24,5.90
2015,12,04,00,25,6.00
2015,12,04,00,26,6.00
2015,12,04,00,27,6.00
2015,12,04,00,28,6.00
2015,12,04,00,29,6.00
2015,12,04,00,30,6.00
2015,12,04,00,31,5.90
2015,12,04,00,32,5.90
2015,12,04,00,33,5.90
2015,12,04,00,34,5.90
2015,12,04,00,35,5.80
2015,12,04,00,36,5.80
2015,12,04,00,37,5.80
2015,12,04,00,38,5.80
2015,12,04,00,39,5.90
2015,12,04,00,40,5.90
2015,12,04,00,41,5.90
2015,12,04,00,42,5.90
2015,12,04,00,43,5.90
2015,12,04,00,44,5.90
2015,12,04,00,45,6.00
2015,12,04,00,46,6.00
2015,12,04,00,47,6.00
2015,12,04,00,48,6.00
2015,12,04,00,49,6.10
2015,12,04,00,50,6.10
2015,12,04,00,51,6.20
2015,12,04,00,52,6.20
2015,12,04,00,53,6.20
2015,12,04,00,54,6.20
2015,12,04,00,55,6.20
2015,12,04,00,56,6.40
2015,12,04,00,57,6.50
2015,12,04,00,58,6.60
2015,12,04,00,59,6.60
2015,12,04,01,00,6.50
2015,12,04,01,01,6.40
2015,12,04,01,02,6.30
2015,12,04,01,03,6.30
2015,12,04,01,04,6.20
2015,12,04,01,05,6.20
2015,12,04,01,06,6.30
2015,12,04,01,07,6.30
2015,12,04,01,08,6.30
2015,12,04,01,09,6.30
2015,12,04,01,10,6.30
2015,12,04,01,11,6.30
2015,12,04,01,12,6.30
2015,12,04,01,13,6.30
2015,12,04,01,14,6.30
2015,12,04,01,15,6.40
2015,12,04,01,16,6.40
2015,12,04,01,17,6.40
2015,12,04,01,18,6.50
2015,12,04,01,19,6.60
2015,12,04,01,20,6.60
2015,12,04,01,21,6.60
2015,12,04,01,22,6.50
2015,12,04,01,23,6.50
2015,12,04,01,24,6.60
2015,12,04,01,25,6.60
2015,12,04,01,26,6.70
2015,12,04,01,27,6.70
2015,12,04,01,28,6.70
2015,12,04,01,29,6.70
2015,12,04,01,30,6.70
2015,12,04,01,31,6.70
2015,12,04,01,32,6.60
2015,12,04,01,33,6.60
2015,12,04,01,34,6.60
2015,12,04,01,35,6.60
2015,12,04,01,36,6.60
2015,12,04,01,37,6.70
2015,12,04,01,38,6.70
2015,12,04,01,39,6.70
2015,12,04,01,40,6.70
2015,12,04,01,41,6.70
2015,12,04,01,42,6.70
2015,12,04,01,43,6.70
2015,12,04,01,44,6.70
2015,12,04,01,45,6.80
2015,12,04,01,46,6.80
2015,12,04,01,47,6.90
2015,12,04,01,48,6.90
2015,12,04,01,49,6.90
2015,12,04,01,50,6.90
2015,12,04,01,51,7.00
2015,12,04,01,52,7.00
2015,12,04,01,53,7.00
2015,12,04,01,54,7.00
2015,12,04,01,55,6.90
2015,12,04,01,56,6.90
2015,12,04,01,57,6.90
2015,12,04,01,58,6.90
2015,12,04,01,59,6.80
2015,12,04,02,00,6.80
2015,12,04,02,01,6.80
2015,12,04,02,02,6.80
2015,12,04,02,03,6.80
2015,12,04,02,04,6.80
2015,12,04,02,05,6.80
2015,12,04,02,06,6.80
2015,12,04,02,07,6.80
2015,12,04,02,08,6.80
2015,12,04,02,09,6.80
2015,12,04,02,10,6.80
2015,12,04,02,11,6.80
2015,12,04,02,12,6.80
2015,12,04,02,13,6.80
2015,12,04,02,14,6.80
2015,12,04,02,15,6.80
2015,12,04,02,16,6.80
2015,12,04,02,17,6.80
2015,12,04,02,18,6.80
2015,12,04,02,19,6.80
2015,12,04,02,20,6.80
2015,12,04,02,21,6.80
2015,12,04,02,22,6.70
2015,12,04,02,23,6.70
2015,12,04,02,24,6.70
2015,12,04,02,25,6.70
2015,12,04,02,26,6.70
2015,12,04,02,27,6.70
2015,12,04,02,28,6.70
2015,12,04,02,29,6.80
2015,12,04,02,30,6.90
2015,12,04,02,31,7.00
2015,12,04,02,32,7.10
2015,12,04,02,33,7.20
2015,12,04,02,34,7.30
2015,12,04,02,35,7.30
2015,12,04,02,36,7.40
2015,12,04,02,37,7.50
2015,12,04,02,38,7.60
2015,12,04,02,39,7.70
2015,12,04,02,40,7.70
2015,12,04,02,41,7.80
2015,12,04,02,42,7.80
2015,12,04,02,43,7.80
2015,12,04,02,44,7.80
2015,12,04,02,45,7.90
2015,12,04,02,46,7.90
2015,12,04,02,47,7.90
2015,12,04,02,48,7.90
2015,12,04,02,49,7.90
2015,12,04,02,50,7.90
2015,12,04,02,51,7.90
2015,12,04,02,52,7.90
2015,12,04,02,53,7.90
2015,12,04,02,54,7.90
2015,12,04,02,55,7.80
2015,12,04,02,56,7.80
2015,12,04,02,57,7.80
2015,12,04,02,58,7.80
2015,12,04,02,59,7.80
2015,12,04,03,00,7.80
2015,12,04,03,01,7.80
2015,12,04,03,02,7.70
2015,12,04,03,03,7.70
2015,12,04,03,04,7.70
2015,12,04,03,05,7.60
2015,12,04,03,06,7.60
2015,12,04,03,07,7.60
2015,12,04,03,08,7.60
2015,12,04,03,09,7.50
2015,12,04,03,10,7.50
2015,12,04,03,11,7.50
2015,12,04,03,12,7.40
2015,12,04,03,13,7.40
2015,12,04,03,14,7.40
2015,12,04,03,15,7.40
2015,12,04,03,16,7.30
2015,12,04,03,17,7.30
2015,12,04,03,18,7.30
2015,12,04,03,19,7.30
2015,12,04,03,20,7.30
2015,12,04,03,21,7.30
2015,12,04,03,22,7.30
2015,12,04,03,23,7.30
2015,12,04,03,24,7.20
2015,12,04,03,25,7.20
2015,12,04,03,26,7.20
2015,12,04,03,27,7.10
2015,12,04,03,28,7.10
2015,12,04,03,29,7.10
2015,12,04,03,30,7.10
2015,12,04,03,31,7.10
2015,12,04,03,32,7.00
2015,12,04,03,33,7.00
2015,12,04,03,34,7.00
2015,12,04,03,35,7.00
2015,12,04,03,36,6.90
2015,12,04,03,37,6.90
2015,12,04,03,38,6.90
2015,12,04,03,39,6.90
2015,12,04,03,40,6.90
2015,12,04,03,41,6.90
2015,12,04,03,42,6.90
2015,12,04,03,43,6.80
2015,12,04,03,44,6.80
2015,12,04,03,45,6.80
2015,12,04,03,46,6.80
2015,12,04,03,47,6.80
2015,12,04,03,48,6.80
2015,12,04,03,49,6.80
2015,12,04,03,50,6.80
2015,12,04,03,51,6.90
2015,12,04,03,52,6.90
2015,12,04,03,53,6.90
2015,12,04,03,54,6.90
2015,12,04,03,55,6.90
2015,12,04,03,56,6.90
2015,12,04,03,57,6.90
2015,12,04,03,58,6.90
2015,12,04,03,59,6.90
2015,12,04,04,00,7.00
2015,12,04,04,01,7.00
2015,12,04,04,02,7.00
2015,12,04,04,03,7.00
2015,12,04,04,04,7.00
2015,12,04,04,05,7.00
2015,12,04,04,06,7.00
2015,12,04,04,07,7.00
2015,12,04,04,08,7.00
2015,12,04,04,09,7.00
2015,12,04,04,10,7.00
2015,12,04,04,11,7.00
2015,12,04,04,12,7.00
2015,12,04,04,13,7.00
2015,12,04,04,14,7.00
2015,12,04,04,15,7.00
2015,12,04,04,16,7.00
2015,12,04,04,17,7.00
2015,12,04,04,18,7.00
2015,12,04,04,19,6.90
2015,12,04,04,20,6.90
2015,12,04,04,21,6.90
2015,12,04,04,22,6.90
2015,12,04,04,23,6.80
2015,12,04,04,24,6.80
2015,12,04,04,25,6.80
2015,12,04,04,26,6.80
2015,12,04,04,27,6.80
2015,12,04,04,28,6.80
2015,12,04,04,29,6.80
2015,12,04,04,30,6.80
2015,12,04,04,31,6.80
2015,12,04,04,32,6.80
2015,12,04,04,33,6.80
2015,12,04,04,34,6.70
2015,12,04,04,35,6.70
2015,12,04,04,36,6.70
2015,12,04,04,37,6.60
2015,12,04,04,38,6.60
2015,12,04,04,39,6.60
2015,12,04,04,40,6.60
2015,12,04,04,41,6.60
2015,12,04,04,42,6.60
2015,12,04,04,43,6.60
2015,12,04,04,44,6.40
2015,12,04,04,45,6.40
2015,12,04,04,46,6.40
2015,12,04,04,47,6.30
2015,12,04,04,48,6.30
2015,12,04,04,49,6.20
2015,12,04,04,50,6.20
2015,12,04,04,51,6.20
2015,12,04,04,52,6.20
2015,12,04,04,53,6.20
2015,12,04,04,54,6.10
2015,12,04,04,55,6.10
2015,12,04,04,56,6.10
2015,12,04,04,57,6.00
2015,12,04,04,58,6.00
2015,12,04,04,59,6.00
2015,12,04,05,00,6.00
2015,12,04,05,01,6.10
2015,12,04,05,02,6.10
2015,12,04,05,03,6.00
2015,12,04,05,04,6.10
2015,12,04,05,05,6.10
2015,12,04,05,06,6.10
2015,12,04,05,07,6.00
2015,12,04,05,08,6.00
2015,12,04,05,09,6.00
2015,12,04,05,10,6.00
2015,12,04,05,11,5.90
2015,12,04,05,12,5.90
2015,12,04,05,13,5.90
2015,12,04,05,14,5.80
2015,12,04,05,15,5.80
2015,12,04,05,16,5.70
2015,12,04,05,17,5.70
2015,12,04,05,18,5.70
2015,12,04,05,19,5.70
2015,12,04,05,20,5.70
2015,12,04,05,21,5.70
2015,12,04,05,22,5.70
2015,12,04,05,23,5.60
2015,12,04,05,24,5.60
2015,12,04,05,25,5.60
2015,12,04,05,26,5.60
2015,12,04,05,27,5.50
2015,12,04,05,28,5.50
2015,12,04,05,29,5.50
2015,12,04,05,30,5.40
2015,12,04,05,31,5.40
2015,12,04,05,32,5.40
2015,12,04,05,33,5.30
2015,12,04,05,34,5.30
2015,12,04,05,35,5.30
2015,12,04,05,36,5.30
2015,12,04,05,37,5.30
2015,12,04,05,38,5.30
2015,12,04,05,39,5.30
2015,12,04,05,40,5.30
2015,12,04,05,41,5.30
2015,12,04,05,42,5.30
2015,12,04,05,43,5.30
2015,12,04,05,44,5.30
2015,12,04,05,45,5.30
2015,12,04,05,46,5.30
2015,12,04,05,47,5.20
2015,12,04,05,48,5.20
2015,12,04,05,49,5.20
2015,12,04,05,50,5.20
2015,12,04,05,51,5.20
2015,12,04,05,52,5.10
2015,12,04,05,53,5.10
2015,12,04,05,54,5.10
2015,12,04,05,55,5.10
2015,12,04,05,56,5.10
2015,12,04,05,57,5.20
2015,12,04,05,58,5.30
2015,12,04,05,59,5.30
2015,12,04,06,00,5.30
2015,12,04,06,01,5.30
2015,12,04,06,02,5.20
2015,12,04,06,03,5.20
2015,12,04,06,04,5.20
2015,12,04,06,05,5.20
2015,12,04,06,06,5.10
2015,12,04,06,07,5.10
2015,12,04,06,08,5.10
2015,12,04,06,09,5.10
2015,12,04,06,10,5.10
2015,12,04,06,11,5.10
2015,12,04,06,12,5.10
2015,12,04,06,13,5.10
2015,12,04,06,14,5.10
2015,12,04,06,15,5.10
2015,12,04,06,16,5.00
2015,12,04,06,17,4.90
2015,12,04,06,18,4.90
2015,12,04,06,19,4.90
2015,12,04,06,20,4.80
2015,12,04,06,21,4.80
2015,12,04,06,22,4.80
2015,12,04,06,23,4.80
2015,12,04,06,24,4.80
2015,12,04,06,25,4.80
2015,12,04,06,26,4.90
2015,12,04,06,27,4.90
2015,12,04,06,28,4.90
2015,12,04,06,29,4.90
2015,12,04,06,30,4.90
2015,12,04,06,31,4.90
2015,12,04,06,32,4.90
2015,12,04,06,33,4.80
2015,12,04,06,34,4.80
2015,12,04,06,35,4.80
2015,12,04,06,36,4.70
2015,12,04,06,37,4.70
2015,12,04,06,38,4.70
2015,12,04,06,39,4.70
2015,12,04,06,40,4.70
2015,12,04,06,41,4.70
2015,12,04,06,42,4.80
2015,12,04,06,43,4.80
2015,12,04,06,44,4.80
2015,12,04,06,45,4.80
2015,12,04,06,46,4.90
2015,12,04,06,47,5.00
2015,12,04,06,48,5.10
2015,12,04,06,49,5.30
2015,12,04,06,50,5.40
2015,12,04,06,51,5.50
2015,12,04,06,52,5.60
2015,12,04,06,53,5.70
2015,12,04,06,54,5.70
2015,12,04,06,55,5.70
2015,12,04,06,56,5.70
2015,12,04,06,57,5.70
2015,12,04,06,58,5.70
2015,12,04,06,59,5.70
2015,12,04,07,00,5.70
2015,12,04,07,01,5.60
2015,12,04,07,02,5.60
2015,12,04,07,03,5.60
2015,12,04,07,04,5.60
2015,12,04,07,05,5.70
2015,12,04,07,06,5.70
2015,12,04,07,07,5.70
2015,12,04,07,08,5.70
2015,12,04,07,09,5.70
2015,12,04,07,10,5.70
2015,12,04,07,11,5.70
2015,12,04,07,12,5.70
2015,12,04,07,13,5.70
2015,12,04,07,14,5.70
2015,12,04,07,15,5.60
2015,12,04,07,16,5.60
2015,12,04,07,17,5.60
2015,12,04,07,18,5.60
2015,12,04,07,19,5.60
2015,12,04,07,20,5.60
2015,12,04,07,21,5.60
2015,12,04,07,22,5.70
2015,12,04,07,23,5.70
2015,12,04,07,24,5.70
2015,12,04,07,25,5.70
2015,12,04,07,26,5.70
2015,12,04,07,27,5.70
2015,12,04,07,28,5.70
2015,12,04,07,29,5.70
2015,12,04,07,30,5.70
2015,12,04,07,31,5.70
2015,12,04,07,32,5.70
2015,12,04,07,33,5.70
2015,12,04,07,34,5.70
2015,12,04,07,35,5.70
2015,12,04,07,36,5.70
2015,12,04,07,37,5.70
2015,12,04,07,38,5.70
2015,12,04,07,39,5.70
2015,12,04,07,40,5.80
2015,12,04,07,41,5.80
2015,12,04,07,42,5.80
2015,12,04,07,43,5.80
2015,12,04,07,44,5.80
2015,12,04,07,45,5.90
2015,12,04,07,46,5.90
2015,12,04,07,47,5.80
2015,12,04,07,48,5.80
2015,12,04,07,49,5.80
2015,12,04,07,50,5.80
2015,12,04,07,51,5.80
2015,12,04,07,52,5.70
2015,12,04,07,53,5.70
2015,12,04,07,54,5.70
2015,12,04,07,55,5.70
2015,12,04,07,56,5.70
2015,12,04,07,57,5.70
2015,12,04,07,58,5.70
2015,12,04,07,59,5.70
2015,12,04,08,00,5.70
2015,12,04,08,01,5.80
2015,12,04,08,02,5.80
2015,12,04,08,03,5.80
2015,12,04,08,04,5.80
2015,12,04,08,05,5.90
2015,12,04,08,06,5.90
2015,12,04,08,07,5.90
2015,12,04,08,08,5.90
2015,12,04,08,09,5.90
2015,12,04,08,10,5.90
2015,12,04,08,11,5.80
2015,12,04,08,12,5.80
2015,12,04,08,13,5.80
2015,12,04,08,14,5.80
2015,12,04,08,15,5.80
2015,12,04,08,16,5.80
2015,12,04,08,17,5.80
2015,12,04,08,18,5.90
2015,12,04,08,19,6.00
2015,12,04,08,20,6.00
2015,12,04,08,21,6.10
2015,12,04,08,22,6.10
2015,12,04,08,23,6.20
2015,12,04,08,24,6.20
2015,12,04,08,25,6.30
2015,12,04,08,26,6.30
2015,12,04,08,27,6.30
2015,12,04,08,28,6.30
2015,12,04,08,29,6.40
2015,12,04,08,30,6.40
2015,12,04,08,31,6.50
2015,12,04,08,32,6.60
2015,12,04,08,33,6.60
2015,12,04,08,34,6.60
2015,12,04,08,35,6.70
2015,12,04,08,36,6.70
2015,12,04,08,37,6.70
2015,12,04,08,38,6.70
2015,12,04,08,39,6.80
2015,12,04,08,40,6.80
2015,12,04,08,41,6.80
2015,12,04,08,42,6.80
2015,12,04,08,43,6.80
2015,12,04,08,44,6.80
2015,12,04,08,45,6.80
2015,12,04,08,46,6.80
2015,12,04,08,47,6.80
2015,12,04,08,48,6.80
2015,12,04,08,49,6.80
2015,12,04,08,50,6.80
2015,12,04,08,51,6.80
2015,12,04,08,52,6.80
2015,12,04,08,53,6.80
2015,12,04,08,54,6.80
2015,12,04,08,55,6.80
2015,12,04,08,56,6.80
2015,12,04,08,57,6.90
2015,12,04,08,58,6.90
2015,12,04,08,59,6.90
2015,12,04,09,00,7.00
2015,12,04,09,01,7.00
2015,12,04,09,02,7.00
2015,12,04,09,03,7.00
2015,12,04,09,04,7.10
2015,12,04,09,05,7.10
2015,12,04,09,06,7.10
2015,12,04,09,07,7.20
2015,12,04,09,08,7.20
2015,12,04,09,09,7.20
2015,12,04,09,10,7.30
2015,12,04,09,11,7.30
2015,12,04,09,12,7.30
2015,12,04,09,13,7.30
2015,12,04,09,14,7.40
2015,12,04,09,15,7.40
2015,12,04,09,16,7.50
2015,12,04,09,17,7.50
2015,12,04,09,18,7.60
2015,12,04,09,19,7.60
2015,12,04,09,20,7.60
2015,12,04,09,21,7.70
2015,12,04,09,22,7.80
2015,12,04,09,23,7.80
2015,12,04,09,24,7.90
2015,12,04,09,25,7.90
2015,12,04,09,26,8.00
2015,12,04,09,27,8.00
2015,12,04,09,28,8.10
2015,12,04,09,29,8.20
2015,12,04,09,30,8.30
2015,12,04,09,31,8.30
2015,12,04,09,32,8.40
2015,12,04,09,33,8.40
2015,12,04,09,34,8.50
2015,12,04,09,35,8.50
2015,12,04,09,36,8.60
2015,12,04,09,37,8.60
2015,12,04,09,38,8.70
2015,12,04,09,39,8.70
2015,12,04,09,40,8.70
2015,12,04,09,41,8.70
2015,12,04,09,42,8.70
2015,12,04,09,43,8.70
2015,12,04,09,44,8.70
2015,12,04,09,45,8.70
2015,12,04,09,46,8.70
2015,12,04,09,47,8.70
2015,12,04,09,48,8.70
2015,12,04,09,49,8.70
2015,12,04,09,50,8.60
2015,12,04,09,51,8.60
2015,12,04,09,52,8.60
2015,12,04,09,53,8.60
2015,12,04,09,54,8.60
2015,12,04,09,55,8.60
2015,12,04,09,56,8.60
2015,12,04,09,57,8.60
2015,12,04,09,58,8.60
2015,12,04,09,59,8.60
2015,12,04,10,00,8.60
2015,12,04,10,01,8.60
2015,12,04,10,02,8.60
2015,12,04,10,03,8.60
2015,12,04,10,04,8.60
2015,12,04,10,05,8.50
2015,12,04,10,06,8.50
2015,12,04,10,07,8.50
2015,12,04,10,08,8.50
2015,12,04,10,09,8.50
2015,12,04,10,10,8.50
2015,12,04,10,11,8.50
2015,12,04,10,12,8.50
2015,12,04,10,13,8.60
2015,12,04,10,14,8.60
2015,12,04,10,15,8.60
2015,12,04,10,16,8.60
2015,12,04,10,17,8.60
2015,12,04,10,18,8.70
2015,12,04,10,19,8.70
2015,12,04,10,20,8.70
2015,12,04,10,21,8.70
2015,12,04,10,22,8.70
2015,12,04,10,23,8.70
2015,12,04,10,24,8.70
2015,12,04,10,25,8.70
2015,12,04,10,26,8.70
2015,12,04,10,27,8.70
2015,12,04,10,28,8.70
2015,12,04,10,29,8.70
2015,12,04,10,30,8.70
2015,12,04,10,31,8.70
2015,12,04,10,32,8.70
2015,12,04,10,33,8.70
2015,12,04,10,34,8.70
2015,12,04,10,35,8.70
2015,12,04,10,36,8.70
2015,12,04,10,37,8.70
2015,12,04,10,38,8.70
2015,12,04,10,39,8.70
2015,12,04,10,40,8.70
2015,12,04,10,41,8.70
2015,12,04,10,42,8.70
2015,12,04,10,43,8.70
2015,12,04,10,44,8.70
2015,12,04,10,45,8.70
2015,12,04,10,46,8.70
2015,12,04,10,47,8.70
2015,12,04,10,48,8.70
2015,12,04,10,49,8.70
2015,12,04,10,50,8.70
2015,12,04,10,51,8.70
2015,12,04,10,52,8.70
2015,12,04,10,53,8.70
2015,12,04,10,54,8.70
2015,12,04,10,55,8.60
2015,12,04,10,56,8.60
2015,12,04,10,57,8.60
2015,12,04,10,58,8.60
2015,12,04,10,59,8.60
2015,12,04,11,00,8.60
2015,12,04,11,01,8.60
2015,12,04,11,02,8.60
2015,12,04,11,03,8.60
2015,12,04,11,04,8.50
2015,12,04,11,05,8.50
2015,12,04,11,06,8.50
2015,12,04,11,07,8.50
2015,12,04,11,08,8.50
2015,12,04,11,09,8.50
2015,12,04,11,10,8.50
2015,12,04,11,11,8.50
2015,12,04,11,12,8.50
2015,12,04,11,13,8.50
2015,12,04,11,14,8.50
2015,12,04,11,15,8.50
2015,12,04,11,16,8.50
2015,12,04,11,17,8.50
2015,12,04,11,18,8.50
2015,12,04,11,19,8.50
2015,12,04,11,20,8.50
2015,12,04,11,21,8.50
2015,12,04,11,22,8.50
2015,12,04,11,23,8.50
2015,12,04,11,24,8.50
2015,12,04,11,25,8.50
2015,12,04,11,26,8.50
2015,12,04,11,27,8.50
2015,12,04,11,28,8.50
2015,12,04,11,29,8.50
2015,12,04,11,30,8.50
2015,12,04,11,31,8.60
2015,12,04,11,32,8.60
2015,12,04,11,33,8.60
2015,12,04,11,34,8.70
2015,12,04,11,35,8.70
2015,12,04,11,36,8.70
2015,12,04,11,37,8.70
2015,12,04,11,38,8.70
2015,12,04,11,39,8.70
2015,12,04,11,40,8.70
2015,12,04,11,41,8.70
2015,12,04,11,42,8.70
2015,12,04,11,43,8.80
2015,12,04,11,44,8.70
2015,12,04,11,45,8.80
2015,12,04,11,46,8.80
2015,12,04,11,47,8.80
2015,12,04,11,48,8.80
2015,12,04,11,49,8.80
2015,12,04,11,50,8.80
2015,12,04,11,51,8.90
2015,12,04,11,52,8.90
2015,12,04,11,53,8.90
2015,12,04,11,54,8.90
2015,12,04,11,55,9.00
2015,12,04,11,56,9.00
2015,12,04,11,57,9.00
2015,12,04,11,58,9.00
2015,12,04,11,59,9.00
2015,12,04,12,00,9.00
2015,12,04,12,01,9.10
2015,12,04,12,02,9.10
2015,12,04,12,03,9.10
2015,12,04,12,04,9.10
2015,12,04,12,05,9.10
2015,12,04,12,06,9.10
2015,12,04,12,07,9.20
2015,12,04,12,08,9.20
2015,12,04,12,09,9.20
2015,12,04,12,10,9.20
2015,12,04,12,11,9.20
2015,12,04,12,12,9.20
2015,12,04,12,13,9.20
2015,12,04,12,14,9.30
2015,12,04,12,15,9.40
2015,12,04,12,16,9.40
2015,12,04,12,17,9.50
2015,12,04,12,18,9.60
2015,12,04,12,19,9.70
2015,12,04,12,20,9.70
2015,12,04,12,21,9.70
2015,12,04,12,22,9.70
2015,12,04,12,23,9.70
2015,12,04,12,24,9.70
2015,12,04,12,25,9.70
2015,12,04,12,26,9.70
2015,12,04,12,27,9.70
2015,12,04,12,28,9.70
2015,12,04,12,29,9.70
2015,12,04,12,30,9.70
2015,12,04,12,31,9.70
2015,12,04,12,32,9.70
2015,12,04,12,33,9.70
2015,12,04,12,34,9.70
2015,12,04,12,35,9.70
2015,12,04,12,36,9.70
2015,12,04,12,37,9.70
2015,12,04,12,38,9.60
2015,12,04,12,39,9.60
2015,12,04,12,40,9.60
2015,12,04,12,41,9.50
2015,12,04,12,42,9.40
2015,12,04,12,43,9.40
2015,12,04,12,44,9.30
2015,12,04,12,45,9.30
2015,12,04,12,46,9.30
2015,12,04,12,47,9.20
2015,12,04,12,48,9.30
2015,12,04,12,49,9.20
2015,12,04,12,50,9.20
2015,12,04,12,51,9.20
2015,12,04,12,52,9.20
2015,12,04,12,53,9.30
2015,12,04,12,54,9.20
2015,12,04,12,55,9.30
2015,12,04,12,56,9.40
2015,12,04,12,57,9.40
2015,12,04,12,58,9.40
2015,12,04,12,59,9.40
2015,12,04,13,00,9.50
2015,12,04,13,01,9.60
2015,12,04,13,02,9.60
2015,12,04,13,03,9.70
2015,12,04,13,04,9.70
2015,12,04,13,05,9.60
2015,12,04,13,06,9.60
2015,12,04,13,07,9.60
2015,12,04,13,08,9.60
2015,12,04,13,09,9.60
2015,12,04,13,10,9.60
2015,12,04,13,11,9.50
2015,12,04,13,12,9.50
2015,12,04,13,13,9.50
2015,12,04,13,14,9.50
2015,12,04,13,15,9.40
2015,12,04,13,16,9.40
2015,12,04,13,17,9.30
2015,12,04,13,18,9.30
2015,12,04,13,19,9.30
2015,12,04,13,20,9.20
2015,12,04,13,21,9.20
2015,12,04,13,22,9.20
2015,12,04,13,23,9.20
2015,12,04,13,24,9.20
2015,12,04,13,25,9.10
2015,12,04,13,26,9.10
2015,12,04,13,27,9.10
2015,12,04,13,28,9.10
2015,12,04,13,29,9.10
2015,12,04,13,30,9.10
2015,12,04,13,31,9.10
2015,12,04,13,32,9.10
2015,12,04,13,33,9.20
2015,12,04,13,34,9.20
2015,12,04,13,35,9.20
2015,12,04,13,36,9.10
2015,12,04,13,37,9.10
2015,12,04,13,38,9.20
2015,12,04,13,39,9.20
2015,12,04,13,40,9.10
2015,12,04,13,41,9.20
2015,12,04,13,42,9.20
2015,12,04,13,43,9.20
2015,12,04,13,44,9.20
2015,12,04,13,45,9.20
2015,12,04,13,46,9.20
2015,12,04,13,47,9.20
2015,12,04,13,48,9.20
2015,12,04,13,49,9.20
2015,12,04,13,50,9.20
2015,12,04,13,51,9.20
2015,12,04,13,52,9.20
2015,12,04,13,53,9.20
2015,12,04,13,54,9.20
2015,12,04,13,55,9.20
2015,12,04,13,56,9.20
2015,12,04,13,57,9.20
2015,12,04,13,58,9.20
2015,12,04,13,59,9.20
2015,12,04,14,00,9.20
2015,12,04,14,01,9.20
2015,12,04,14,02,9.10
2015,12,04,14,03,9.10
2015,12,04,14,04,9.10
2015,12,04,14,05,9.10
2015,12,04,14,06,9.10
2015,12,04,14,07,9.10
2015,12,04,14,08,9.10
2015,12,04,14,09,9.10
2015,12,04,14,10,9.10
2015,12,04,14,11,9.10
2015,12,04,14,12,9.10
2015,12,04,14,13,9.10
2015,12,04,14,14,9.10
2015,12,04,14,15,9.10
2015,12,04,14,16,9.10
2015,12,04,14,17,9.10
2015,12,04,14,18,9.10
2015,12,04,14,19,9.10
2015,12,04,14,20,9.10
2015,12,04,14,21,9.10
2015,12,04,14,22,9.10
2015,12,04,14,23,9.10
2015,12,04,14,24,9.10
2015,12,04,14,25,9.10
2015,12,04,14,26,9.00
2015,12,04,14,27,9.00
2015,12,04,14,28,9.00
2015,12,04,14,29,9.00
2015,12,04,14,30,9.00
2015,12,04,14,31,9.00
2015,12,04,14,32,9.00
2015,12,04,14,33,9.00
2015,12,04,14,34,9.10
2015,12,04,14,35,9.10
2015,12,04,14,36,9.10
2015,12,04,14,37,9.10
2015,12,04,14,38,9.10
2015,12,04,14,39,9.10
2015,12,04,14,40,9.10
2015,12,04,14,41,9.10
2015,12,04,14,42,9.10
2015,12,04,14,43,9.10
2015,12,04,14,44,9.10
2015,12,04,14,45,9.00
2015,12,04,14,46,9.00
2015,12,04,14,47,9.00
2015,12,04,14,48,9.00
2015,12,04,14,49,9.00
2015,12,04,14,50,9.00
2015,12,04,14,51,9.00
2015,12,04,14,52,9.00
2015,12,04,14,53,9.00
2015,12,04,14,54,9.00
2015,12,04,14,55,9.10
2015,12,04,14,56,9.10
2015,12,04,14,57,9.10
2015,12,04,14,58,9.20
2015,12,04,14,59,9.20
2015,12,04,15,00,9.20
2015,12,04,15,01,9.20
2015,12,04,15,02,9.20
2015,12,04,15,03,9.20
2015,12,04,15,04,9.20
2015,12,04,15,05,9.20
2015,12,04,15,06,9.20
2015,12,04,15,07,9.20
2015,12,04,15,08,9.20
2015,12,04,15,09,9.20
2015,12,04,15,10,9.10
2015,12,04,15,11,9.10
2015,12,04,15,12,9.10
2015,12,04,15,13,9.10
2015,12,04,15,14,9.00
2015,12,04,15,15,9.00
2015,12,04,15,16,9.00
2015,12,04,15,17,9.00
2015,12,04,15,18,9.00
2015,12,04,15,19,9.00
2015,12,04,15,20,9.00
2015,12,04,15,21,9.10
2015,12,04,15,22,9.10
2015,12,04,15,23,9.10
2015,12,04,15,24,9.10
2015,12,04,15,25,9.10
2015,12,04,15,26,9.10
2015,12,04,15,27,9.10
2015,12,04,15,28,9.10
2015,12,04,15,29,9.10
2015,12,04,15,30,9.10
2015,12,04,15,31,9.10
2015,12,04,15,32,9.10
2015,12,04,15,33,9.10
2015,12,04,15,34,9.10
2015,12,04,15,35,9.10
2015,12,04,15,36,9.10
2015,12,04,15,37,9.10
2015,12,04,15,38,9.10
2015,12,04,15,39,9.00
2015,12,04,15,40,9.00
2015,12,04,15,41,9.00
2015,12,04,15,42,9.00
2015,12,04,15,43,9.00
2015,12,04,15,44,9.00
2015,12,04,15,45,9.00
2015,12,04,15,46,9.00
2015,12,04,15,47,9.00
2015,12,04,15,48,9.00
2015,12,04,15,49,9.00
2015,12,04,15,50,9.00
2015,12,04,15,51,9.00
2015,12,04,15,52,9.00
2015,12,04,15,53,9.00
2015,12,04,15,54,9.00
2015,12,04,15,55,8.90
2015,12,04,15,56,8.90
2015,12,04,15,57,8.90
2015,12,04,15,58,8.90
2015,12,04,15,59,8.90
2015,12,04,16,00,8.90
2015,12,04,16,01,8.90
2015,12,04,16,02,8.90
2015,12,04,16,03,8.90
2015,12,04,16,04,8.90
2015,12,04,16,05,8.80
2015,12,04,16,06,8.80
2015,12,04,16,07,8.80
2015,12,04,16,08,8.80
2015,12,04,16,09,8.80
2015,12,04,16,10,8.80
2015,12,04,16,11,8.80
2015,12,04,16,12,8.80
2015,12,04,16,13,8.80
2015,12,04,16,14,8.80
2015,12,04,16,15,8.80
2015,12,04,16,16,8.80
2015,12,04,16,17,8.80
2015,12,04,16,18,8.70
2015,12,04,16,19,8.70
2015,12,04,16,20,8.70
2015,12,04,16,21,8.70
2015,12,04,16,22,8.70
2015,12,04,16,23,8.70
2015,12,04,16,24,8.70
2015,12,04,16,25,8.70
2015,12,04,16,26,8.70
2015,12,04,16,27,8.70
2015,12,04,16,28,8.70
2015,12,04,16,29,8.70
2015,12,04,16,30,8.60
2015,12,04,16,31,8.60
2015,12,04,16,32,8.60
2015,12,04,16,33,8.60
2015,12,04,16,34,8.50
2015,12,04,16,35,8.50
2015,12,04,16,36,8.50
2015,12,04,16,37,8.50
2015,12,04,16,38,8.40
2015,12,04,16,39,8.40
2015,12,04,16,40,8.40
2015,12,04,16,41,8.30
2015,12,04,16,42,8.30
2015,12,04,16,43,8.30
2015,12,04,16,44,8.20
2015,12,04,16,45,8.20
2015,12,04,16,46,8.20
2015,12,04,16,47,8.20
2015,12,04,16,48,8.20
2015,12,04,16,49,8.20
2015,12,04,16,50,8.20
2015,12,04,16,51,8.10
2015,12,04,16,52,8.10
2015,12,04,16,53,8.10
2015,12,04,16,54,8.10
2015,12,04,16,55,8.10
2015,12,04,16,56,8.10
2015,12,04,16,57,8.10
2015,12,04,16,58,8.10
2015,12,04,16,59,8.10
2015,12,04,17,00,8.10
2015,12,04,17,01,8.10
2015,12,04,17,02,8.10
2015,12,04,17,03,8.10
2015,12,04,17,04,8.10
2015,12,04,17,05,8.10
2015,12,04,17,06,8.10
2015,12,04,17,07,8.10
2015,12,04,17,08,8.10
2015,12,04,17,09,8.10
2015,12,04,17,10,8.10
2015,12,04,17,11,8.10
2015,12,04,17,12,8.10
2015,12,04,17,13,8.10
2015,12,04,17,14,8.10
2015,12,04,17,15,8.10
2015,12,04,17,16,8.20
2015,12,04,17,17,8.20
2015,12,04,17,18,8.10
2015,12,04,17,19,8.10
2015,12,04,17,20,8.10
2015,12,04,17,21,8.00
2015,12,04,17,22,8.00
2015,12,04,17,23,8.00
2015,12,04,17,24,7.90
2015,12,04,17,25,7.90
2015,12,04,17,26,7.90
2015,12,04,17,27,7.80
2015,12,04,17,28,7.80
2015,12,04,17,29,7.80
2015,12,04,17,30,7.80
2015,12,04,17,31,7.70
2015,12,04,17,32,7.70
2015,12,04,17,33,7.70
2015,12,04,17,34,7.60
2015,12,04,17,35,7.60
2015,12,04,17,36,7.60
2015,12,04,17,37,7.50
2015,12,04,17,38,7.50
2015,12,04,17,39,7.40
2015,12,04,17,40,7.40
2015,12,04,17,41,7.40
2015,12,04,17,42,7.30
2015,12,04,17,43,7.30
2015,12,04,17,44,7.30
2015,12,04,17,45,7.30
2015,12,04,17,46,7.30
2015,12,04,17,47,7.30
2015,12,04,17,48,7.30
2015,12,04,17,49,7.30
2015,12,04,17,50,7.20
2015,12,04,17,51,7.20
2015,12,04,17,52,7.10
2015,12,04,17,53,7.10
2015,12,04,17,54,7.10
2015,12,04,17,55,7.10
2015,12,04,17,56,7.10
2015,12,04,17,57,7.10
2015,12,04,17,58,7.10
2015,12,04,17,59,7.10
2015,12,04,18,00,7.10
2015,12,04,18,01,7.10
2015,12,04,18,02,7.10
2015,12,04,18,03,7.10
2015,12,04,18,04,7.10
2015,12,04,18,05,7.10
2015,12,04,18,06,7.10